GW2897 Weather Reports


Display with metric or nautical units.
time (UTC)temp
F
wind
direction
speed
MPH
gust
MPH
rain 1hr
in
rain 24hr
in
rain mn
in
humidity
%
barometer
mb
20260902165402 92 232 0.0 2.0 0.00 0.00 0.00 61 1018.4
20260902164502 92 300 1.0 3.0 0.00 0.00 0.00 64 1018.5
20260902163602 92 298 2.0 3.0 0.00 0.00 0.00 61 1018.6
20260902162702 92 292 3.0 6.0 0.00 0.00 0.00 61 1018.6
20260902161802 92 321 2.0 6.0 0.00 0.00 0.00 62 1018.6
20260902160923 93 287 2.0 6.0 0.00 0.00 0.00 61 1018.7
20260902160002 93 313 2.0 7.0 0.00 0.00 0.00 62 1018.7
20260902155403 93 3 0.0 3.0 0.00 0.00 0.00 62 1018.8
20260902154502 93 322 2.0 6.0 0.00 0.00 0.00 61 1019.0
20260902153602 92 294 3.0 6.0 0.00 0.00 0.00 62 1019.0
20260902152702 92 321 2.0 6.0 0.00 0.00 0.00 64 1019.0
20260902151803 92 331 1.0 5.0 0.00 0.00 0.00 63 1019.0
20260902150924 91 284 2.0 4.0 0.00 0.00 0.00 66 1019.1
20260902150003 90 285 2.0 5.0 0.00 0.00 0.00 67 1019.1
20260902145402 90 282 2.0 5.0 0.00 0.00 0.00 69 1019.1
20260902144502 90 288 2.0 7.0 0.00 0.00 0.00 68 1019.1
20260902143603 89 282 2.0 4.0 0.00 0.00 0.00 69 1019.0
20260902142705 88 272 2.0 6.0 0.00 0.00 0.00 72 1018.9
20260902141803 87 260 1.0 3.0 0.00 0.00 0.00 75 1018.8
20260902140924 86 295 2.0 5.0 0.00 0.00 0.00 75 1018.9
20260902140003 86 315 3.0 5.0 0.00 0.00 0.00 77 1018.9
20260902135403 85 298 1.0 5.0 0.00 0.00 0.00 78 1018.9
20260902134502 84 270 1.0 3.0 0.00 0.00 0.00 80 1018.9
20260902133602 83 263 1.0 5.0 0.00 0.00 0.00 80 1018.8
20260902132702 82 258 0.0 2.0 0.00 0.00 0.00 82 1018.9
20260902131803 81 284 1.0 4.0 0.00 0.00 0.00 86 1018.9
20260902130924 79 293 0.0 2.0 0.00 0.00 0.00 90 1018.9
20260902130003 77 68 0.0 1.0 0.00 0.00 0.00 96 1019.0
20260902125424 76 0 0.0 0.0 0.00 0.00 0.00 98 1019.0
20260902124503 76 0 0.0 0.0 0.00 0.00 0.00 98 1019.1
20260902123603 75 0 0.0 0.0 0.00 0.00 0.00 98 1019.1
20260902122703 74 0 0.0 0.0 0.00 0.00 0.00 98 1019.1
20260902121803 73 0 0.0 0.0 0.00 0.00 0.00 98 1018.9
20260902120903 72 0 0.0 0.0 0.00 0.00 0.00 97 1019.0
20260902120003 72 0 0.0 0.0 0.00 0.00 0.00 97 1019.0
20260902115403 72 0 0.0 0.0 0.00 0.00 0.00 97 1019.1
20260902114503 71 0 0.0 0.0 0.00 0.00 0.00 97 1019.0
20260902113603 71 0 0.0 0.0 0.00 0.00 0.00 97 1019.0
20260902112724 71 0 0.0 0.0 0.00 0.00 0.00 97 1018.8
20260902111803 71 0 0.0 0.0 0.00 0.00 0.00 97 1018.7
20260902110924 71 0 0.0 0.0 0.00 0.00 0.00 96 1018.7
20260902110005 71 0 0.0 0.0 0.00 0.00 0.00 97 1018.6
20260902105403 71 0 0.0 0.0 0.00 0.00 0.00 96 1018.6
20260902104503 71 0 0.0 0.0 0.00 0.00 0.00 96 1018.6
20260902103603 71 0 0.0 0.0 0.00 0.00 0.00 96 1018.6
20260902102724 71 0 0.0 0.0 0.00 0.00 0.00 96 1018.3
20260902101803 71 0 0.0 0.0 0.00 0.00 0.00 96 1018.4
20260902100903 71 0 0.0 0.0 0.00 0.00 0.00 96 1018.3
20260902100000 72 0 0.0 0.0 0.00 0.00 0.00 96 1018.2
20260902095359 72 0 0.0 0.0 0.00 0.00 0.00 96 1018.2
20260902094500 72 0 0.0 0.0 0.00 0.00 0.00 96 1018.3
20260902093600 72 0 0.0 0.0 0.00 0.00 0.00 96 1018.2
20260902092659 72 0 0.0 0.0 0.00 0.00 0.00 96 1018.1
20260902091800 72 0 0.0 0.0 0.00 0.00 0.00 96 1018.1
20260902090900 72 0 0.0 0.0 0.00 0.00 0.00 95 1017.9
20260902085959 72 0 0.0 0.0 0.00 0.00 0.00 95 1017.9
20260902085400 73 0 0.0 0.0 0.00 0.00 0.00 95 1017.9
20260902084500 73 0 0.0 0.0 0.00 0.00 0.00 95 1017.9
20260902083600 73 0 0.0 0.0 0.00 0.00 0.00 95 1017.8
20260902082700 73 0 0.0 0.0 0.00 0.00 0.00 95 1017.8
20260902081800 73 0 0.0 0.0 0.00 0.00 0.00 95 1017.7
20260902080900 73 0 0.0 0.0 0.00 0.00 0.00 94 1017.6
20260902080000 74 0 0.0 0.0 0.00 0.00 0.00 94 1017.6
20260902075400 74 0 0.0 0.0 0.00 0.00 0.00 94 1017.4
20260902074500 74 0 0.0 0.0 0.00 0.00 0.00 94 1017.5
20260902073600 74 0 0.0 0.0 0.00 0.00 0.00 94 1017.4
20260902072701 74 0 0.0 0.0 0.00 0.00 0.00 94 1017.5
20260902071800 74 0 0.0 0.0 0.00 0.00 0.00 94 1017.4
20260902070900 74 0 0.0 0.0 0.00 0.00 0.00 94 1017.5
20260902070000 74 0 0.0 0.0 0.00 0.00 0.00 94 1017.5
20260902065400 74 0 0.0 0.0 0.00 0.00 0.00 94 1017.5
20260902064500 74 0 0.0 0.0 0.00 0.00 0.00 94 1017.7
20260902063600 74 0 0.0 0.0 0.00 0.00 0.00 94 1017.6
20260902062701 74 0 0.0 0.0 0.00 0.00 0.00 94 1017.7
20260902061800 75 0 0.0 0.0 0.00 0.00 0.00 94 1017.8
20260902060900 75 0 0.0 0.0 0.00 0.00 0.00 94 1017.7
20260902060000 75 0 0.0 0.0 0.00 0.00 0.00 94 1017.8
20260902055400 75 0 0.0 0.0 0.00 0.00 0.00 93 1017.8
20260902054501 75 0 0.0 0.0 0.00 0.00 0.00 93 1017.8
20260902053600 75 0 0.0 0.0 0.00 0.00 0.00 92 1017.8
20260902052700 75 0 0.0 0.0 0.00 0.00 0.00 92 1017.8
20260902051800 75 0 0.0 0.0 0.00 0.00 0.00 92 1017.8
20260902050900 75 0 0.0 0.0 0.00 0.00 0.00 91 1017.7
20260902050001 75 0 0.0 0.0 0.00 0.00 0.00 91 1017.6
20260902045400 75 0 0.0 0.0 0.00 0.00 0.00 90 1017.6
20260902044501 76 0 0.0 0.0 0.00 0.00 0.00 89 1017.6
20260902043600 76 0 0.0 0.0 0.00 0.00 0.00 90 1017.5
20260902042700 75 0 0.0 0.0 0.00 0.00 0.00 89 1017.5
20260902041800 76 0 0.0 0.0 0.00 0.00 0.00 88 1017.5
20260902040900 75 0 0.0 0.0 0.00 0.00 0.00 89 1017.5
20260902040001 76 0 0.0 0.0 0.00 0.00 0.00 89 1017.5
20260902035401 76 0 0.0 0.0 0.00 0.00 0.00 89 1017.5
20260902034501 76 0 0.0 0.0 0.00 0.00 0.00 89 1017.5
20260902033601 76 0 0.0 0.0 0.00 0.00 0.00 89 1017.4
20260902032701 77 0 0.0 0.0 0.00 0.00 0.00 89 1017.5
20260902031801 77 0 0.0 0.0 0.00 0.00 0.00 88 1017.5
20260902030922 77 0 0.0 0.0 0.00 0.00 0.00 87 1017.5
20260902030022 77 0 0.0 0.0 0.00 0.00 0.00 86 1017.5
20260902025400 77 0 0.0 0.0 0.00 0.00 0.00 86 1017.6
20260902024501 77 0 0.0 0.0 0.00 0.00 0.00 86 1017.6
20260902023601 77 0 0.0 0.0 0.00 0.00 0.00 86 1017.5
20260902022701 78 0 0.0 0.0 0.00 0.00 0.00 86 1017.4
20260902021801 78 0 0.0 0.0 0.00 0.00 0.00 86 1017.3
20260902020901 78 0 0.0 0.0 0.00 0.00 0.00 86 1017.3
20260902020001 78 0 0.0 0.0 0.00 0.00 0.00 86 1017.3
20260902015401 78 0 0.0 0.0 0.00 0.00 0.00 85 1017.3
20260902014501 78 0 0.0 0.0 0.00 0.00 0.00 84 1017.2
20260902013601 79 0 0.0 0.0 0.00 0.00 0.00 84 1017.2
20260902012701 79 0 0.0 0.0 0.00 0.00 0.00 84 1017.1
20260902011801 80 0 0.0 0.0 0.00 0.00 0.00 84 1017.1
20260902010901 80 0 0.0 0.0 0.00 0.00 0.00 82 1017.0
20260902010001 81 0 0.0 0.0 0.00 0.00 0.00 81 1016.9
20260902005402 81 0 0.0 0.0 0.00 0.00 0.00 82 1016.9
20260902004501 82 124 0.0 1.0 0.00 0.00 0.00 82 1016.8
20260902003622 82 124 0.0 1.0 0.00 0.00 0.00 81 1016.7
20260902002722 83 124 0.0 1.0 0.00 0.00 0.00 79 1016.8
20260902001801 84 132 0.0 1.0 0.00 0.00 0.00 78 1016.7
20260902000901 85 133 0.0 1.0 0.00 0.00 0.00 76 1016.6
20260902000002 86 133 0.0 1.0 0.00 0.00 0.00 74 1016.6
20260901235401 86 137 0.0 3.0 0.00 0.00 0.00 73 1016.6
20260901234522 87 130 0.0 2.0 0.00 0.00 0.00 73 1016.8
20260901233622 89 0 0.0 0.0 0.00 0.00 0.00 72 1016.8
20260901232701 91 0 0.0 0.0 0.00 0.00 0.00 71 1016.8
20260901231801 92 122 0.0 1.0 0.00 0.00 0.00 68 1016.8
20260901230902 93 125 0.0 1.0 0.00 0.00 0.00 66 1016.8
20260901230001 94 129 0.0 1.0 0.00 0.00 0.00 65 1016.8
20260901225401 93 129 0.0 1.0 0.00 0.00 0.00 65 1016.7
20260901224501 93 122 0.0 1.0 0.00 0.00 0.00 63 1016.7
20260901223601 93 116 0.0 2.0 0.00 0.00 0.00 66 1016.7
20260901222723 93 119 0.0 1.0 0.00 0.00 0.00 65 1016.7
20260901221802 93 120 0.0 2.0 0.00 0.00 0.00 62 1016.7
20260901220902 94 116 0.0 2.0 0.00 0.00 0.00 61 1016.7
20260901220002 95 115 1.0 4.0 0.00 0.00 0.00 58 1016.6
20260901215401 95 122 1.0 4.0 0.00 0.00 0.00 58 1016.6
20260901214502 95 142 2.0 7.0 0.00 0.00 0.00 55 1016.4
20260901213602 96 121 0.0 3.0 0.00 0.00 0.00 54 1016.5
20260901212701 95 135 0.0 1.0 0.00 0.00 0.00 55 1016.5
20260901211802 95 129 0.0 1.0 0.00 0.00 0.00 55 1016.5
20260901210902 95 155 1.0 3.0 0.00 0.00 0.00 54 1016.5
20260901210002 95 102 1.0 3.0 0.00 0.00 0.00 53 1016.5
20260901205402 96 90 1.0 3.0 0.00 0.00 0.00 53 1016.6
20260901204502 97 203 1.0 3.0 0.00 0.00 0.00 51 1016.6
20260901203602 98 307 0.0 1.0 0.00 0.00 0.00 50 1016.8
20260901202702 96 266 1.0 4.0 0.00 0.00 0.00 50 1016.8
20260901201802 96 127 1.0 4.0 0.00 0.00 0.00 51 1016.9
20260901200902 95 155 0.0 2.0 0.00 0.00 0.00 54 1017.0
20260901200002 93 243 0.0 1.0 0.00 0.00 0.00 60 1017.1
20260901195401 94 178 0.0 2.0 0.00 0.00 0.00 57 1017.1
20260901194502 94 251 1.0 5.0 0.00 0.00 0.00 55 1017.2
20260901193602 94 274 1.0 4.0 0.00 0.00 0.00 55 1017.3
20260901192702 94 249 2.0 5.0 0.00 0.00 0.00 57 1017.4
20260901191802 94 275 2.0 6.0 0.00 0.00 0.00 57 1017.5
20260901190923 95 260 2.0 5.0 0.00 0.00 0.00 55 1017.5
20260901190002 94 315 2.0 6.0 0.00 0.00 0.00 59 1017.7
20260901185423 94 339 1.0 5.0 0.00 0.00 0.00 57 1017.7
20260901184502 93 312 2.0 5.0 0.00 0.00 0.00 57 1017.8
20260901183602 93 308 2.0 6.0 0.00 0.00 0.00 58 1017.8
20260901182723 93 287 2.0 6.0 0.00 0.00 0.00 59 1017.9
20260901181802 93 262 1.0 6.0 0.00 0.00 0.00 59 1018.0
20260901180902 93 347 0.0 2.0 0.00 0.00 0.00 57 1018.1
20260901180002 93 309 2.0 4.0 0.00 0.00 0.00 56 1018.1
20260901175402 95 301 2.0 5.0 0.00 0.00 0.00 57 1018.1
20260901174502 94 319 1.0 7.0 0.00 0.00 0.00 56 1018.2
20260901173602 94 2 1.0 3.0 0.00 0.00 0.00 57 1018.4
20260901172702 93 305 2.0 6.0 0.00 0.00 0.00 58 1018.5
20260901171802 94 286 2.0 8.0 0.00 0.00 0.00 59 1018.7
20260901170902 94 198 1.0 3.0 0.00 0.00 0.00 58 1018.7
20260901170002 93 297 3.0 8.0 0.00 0.00 0.00 59 1018.8